WMT3428 LIRN-LRCL

Flight info

Callsign WMT3428
Flight time 1h 35m
Altitude 37000
Route BEDPI DCT MOLUX DCT RUPAX DCT XOLTA DCT MAVIT DCT TIXIP DCT IBINU
Aircraft A21N/M-SDE3FGHIRWY/LB1

Departure

Time 2026-04-24 13:20
Airport Naples International Airport (LIRN)

Arrival

Time 2026-04-24 14:56
Airport Avram Iancu Cluj International Airport (LRCL)
Time Latitude Longitude Altitude Speed Heading
2026-04-24 13:00 40.88016 14.28310 289 ft 0 kts 334°
2026-04-24 13:14 40.88031 14.28301 288 ft 5 kts 336°
2026-04-24 13:14 40.88060 14.28342 287 ft 9 kts 79°
2026-04-24 13:14 40.88051 14.28449 286 ft 14 kts 97°
2026-04-24 13:15 40.88038 14.28574 284 ft 11 kts 95°
2026-04-24 13:15 40.88087 14.28678 282 ft 16 kts 52°
2026-04-24 13:15 40.88165 14.28812 278 ft 21 kts 53°
2026-04-24 13:15 40.88262 14.28981 274 ft 25 kts 52°
2026-04-24 13:16 40.88370 14.29167 269 ft 26 kts 52°
2026-04-24 13:16 40.88484 14.29365 264 ft 28 kts 53°
2026-04-24 13:16 40.88599 14.29565 259 ft 25 kts 53°
2026-04-24 13:16 40.88706 14.29749 253 ft 25 kts 52°
2026-04-24 13:17 40.88808 14.29925 248 ft 24 kts 52°
2026-04-24 13:17 40.88911 14.30103 241 ft 20 kts 52°
2026-04-24 13:17 40.89000 14.30258 238 ft 21 kts 53°
2026-04-24 13:17 40.89087 14.30409 229 ft 15 kts 52°
2026-04-24 13:18 40.89130 14.30448 227 ft 3 kts 14°
2026-04-24 13:18 40.89132 14.30449 227 ft 0 kts 12°
2026-04-24 13:19 40.89165 14.30446 226 ft 9 kts 346°
2026-04-24 13:19 40.89207 14.30370 227 ft 12 kts 264°
2026-04-24 13:19 40.89167 14.30272 232 ft 23 kts 238°
2026-04-24 13:20 40.88925 14.29758 249 ft 105 kts 238°
2026-04-24 13:20 40.88421 14.28695 334 ft 160 kts 238°
2026-04-24 13:20 40.87827 14.27432 1094 ft 167 kts 237°
2026-04-24 13:20 40.87050 14.26231 1896 ft 178 kts 224°
2026-04-24 13:21 40.86099 14.25062 2598 ft 196 kts 222°
2026-04-24 13:21 40.84971 14.23862 3212 ft 219 kts 208°
2026-04-24 13:21 40.83453 14.23315 3835 ft 237 kts 175°
2026-04-24 13:21 40.81828 14.23828 4625 ft 242 kts 157°
2026-04-24 13:22 40.80244 14.24556 5625 ft 244 kts 156°
2026-04-24 13:22 40.78571 14.25301 6222 ft 263 kts 160°
2026-04-24 13:22 40.76764 14.26071 6843 ft 282 kts 157°
2026-04-24 13:22 40.75126 14.27411 7431 ft 276 kts 131°
2026-04-24 13:23 40.74119 14.29543 8046 ft 276 kts 104°
2026-04-24 13:23 40.73950 14.32020 8651 ft 273 kts 78°
2026-04-24 13:23 40.74670 14.34315 9336 ft 275 kts 51°
2026-04-24 13:23 40.76127 14.35931 10049 ft 277 kts 26°
2026-04-24 13:24 40.77905 14.37012 10633 ft 289 kts 24°
2026-04-24 13:24 40.79820 14.38145 10968 ft 313 kts 25°
2026-04-24 13:24 40.81815 14.39404 11369 ft 329 kts 26°
2026-04-24 13:24 40.83872 14.40782 12146 ft 333 kts 27°
2026-04-24 13:25 40.85938 14.42207 12913 ft 337 kts 27°
2026-04-24 13:25 40.88028 14.43667 13711 ft 341 kts 27°
2026-04-24 13:25 40.90138 14.45146 14407 ft 346 kts 27°
2026-04-24 13:25 40.92274 14.46643 15116 ft 349 kts 27°
2026-04-24 13:26 40.94433 14.48154 15775 ft 353 kts 27°
2026-04-24 13:26 40.96616 14.49681 16456 ft 357 kts 27°
2026-04-24 13:26 40.98821 14.51222 17083 ft 361 kts 27°
2026-04-24 13:26 41.01056 14.52785 17729 ft 365 kts 27°
2026-04-24 13:27 41.03309 14.54361 18405 ft 368 kts 27°
2026-04-24 13:27 41.05585 14.55955 18956 ft 371 kts 27°
2026-04-24 13:27 41.07873 14.57557 19570 ft 373 kts 27°
2026-04-24 13:27 41.10177 14.59173 20095 ft 377 kts 27°
2026-04-24 13:28 41.12500 14.60802 20700 ft 379 kts 27°
2026-04-24 13:28 41.14838 14.62442 21289 ft 382 kts 28°
2026-04-24 13:28 41.17194 14.64097 21866 ft 384 kts 28°
2026-04-24 13:28 41.19563 14.65763 22429 ft 387 kts 28°
2026-04-24 13:29 41.21953 14.67444 22964 ft 390 kts 28°
2026-04-24 13:29 41.24357 14.69138 23522 ft 393 kts 28°
2026-04-24 13:29 41.26743 14.70822 23969 ft 395 kts 28°
2026-04-24 13:29 41.29177 14.72540 24095 ft 396 kts 28°
2026-04-24 13:30 41.31608 14.74258 24103 ft 395 kts 28°
2026-04-24 13:30 41.34040 14.75978 24197 ft 397 kts 28°
2026-04-24 13:30 41.36484 14.77709 24693 ft 398 kts 28°
2026-04-24 13:30 41.38928 14.79441 25189 ft 399 kts 28°
2026-04-24 13:31 41.41387 14.81186 25576 ft 402 kts 28°
2026-04-24 13:31 41.43860 14.82942 25980 ft 404 kts 28°
2026-04-24 13:31 41.46349 14.84711 26379 ft 407 kts 28°
2026-04-24 13:31 41.48852 14.86491 26760 ft 409 kts 28°
2026-04-24 13:32 41.51372 14.88285 27153 ft 411 kts 28°
2026-04-24 13:32 41.53900 14.90085 27534 ft 413 kts 28°
2026-04-24 13:32 41.56444 14.91898 27902 ft 416 kts 28°
2026-04-24 13:32 41.59002 14.93722 28255 ft 417 kts 28°
2026-04-24 13:33 41.61570 14.95555 28590 ft 420 kts 28°
2026-04-24 13:33 41.64153 14.97401 28892 ft 422 kts 28°
2026-04-24 13:33 41.66747 14.99256 29235 ft 424 kts 28°
2026-04-24 13:33 41.69352 15.01121 29537 ft 426 kts 28°
2026-04-24 13:34 41.71973 15.03000 29836 ft 428 kts 28°
2026-04-24 13:34 41.74601 15.04885 30152 ft 430 kts 28°
2026-04-24 13:34 41.77242 15.06780 30429 ft 431 kts 28°
2026-04-24 13:34 41.79854 15.08657 30705 ft 433 kts 28°
2026-04-24 13:35 41.82511 15.10568 30990 ft 434 kts 28°
2026-04-24 13:35 41.85176 15.12487 31265 ft 435 kts 28°
2026-04-24 13:35 41.87841 15.14406 31623 ft 435 kts 28°
2026-04-24 13:35 41.90505 15.16327 31981 ft 434 kts 29°
2026-04-24 13:36 41.93160 15.18243 32336 ft 433 kts 29°
2026-04-24 13:36 41.95809 15.20157 32681 ft 432 kts 29°
2026-04-24 13:36 41.98453 15.22070 33008 ft 431 kts 29°
2026-04-24 13:36 42.00202 15.23335 33219 ft 431 kts 29°
2026-04-24 13:37 42.02839 15.25245 33534 ft 430 kts 29°
2026-04-24 13:37 42.05470 15.27153 33841 ft 429 kts 29°
2026-04-24 13:37 42.08095 15.29058 34136 ft 428 kts 29°
2026-04-24 13:37 42.10716 15.30963 34386 ft 428 kts 29°
2026-04-24 13:38 42.13330 15.32864 34628 ft 427 kts 29°
2026-04-24 13:38 42.15941 15.34764 34860 ft 426 kts 30°
2026-04-24 13:38 42.18550 15.36666 35071 ft 426 kts 30°
2026-04-24 13:38 42.19173 15.37120 35126 ft 426 kts 30°
2026-04-24 13:39 42.21061 15.38497 35283 ft 426 kts 30°
2026-04-24 13:39 42.23663 15.40397 35498 ft 425 kts 30°
2026-04-24 13:39 42.26263 15.42297 35709 ft 425 kts 30°
2026-04-24 13:39 42.28857 15.44195 35908 ft 424 kts 30°
2026-04-24 13:40 42.31451 15.46094 36104 ft 424 kts 30°
2026-04-24 13:40 42.34039 15.47991 36285 ft 423 kts 30°
2026-04-24 13:40 42.36625 15.49888 36475 ft 423 kts 30°
2026-04-24 13:40 42.39207 15.51784 36652 ft 422 kts 30°
2026-04-24 13:41 42.41786 15.53679 36824 ft 422 kts 30°
2026-04-24 13:41 42.44363 15.55575 36994 ft 421 kts 30°
2026-04-24 13:41 42.46937 15.57470 37120 ft 421 kts 30°
2026-04-24 13:41 42.49473 15.59338 37112 ft 420 kts 30°
2026-04-24 13:42 42.54590 15.63115 37110 ft 418 kts 30°
2026-04-24 13:42 42.59700 15.66894 37105 ft 418 kts 30°
2026-04-24 13:43 42.64800 15.70671 37105 ft 417 kts 30°
2026-04-24 13:43 42.69552 15.75119 37100 ft 415 kts 42°
2026-04-24 13:44 42.73431 15.80887 37102 ft 414 kts 54°
2026-04-24 13:44 42.76651 15.87378 37102 ft 414 kts 56°
2026-04-24 13:45 42.79877 15.93862 37101 ft 414 kts 56°
2026-04-24 13:45 42.83106 16.00345 37100 ft 413 kts 56°
2026-04-24 13:46 42.86328 16.06830 37100 ft 413 kts 56°
2026-04-24 13:46 42.89521 16.13276 37103 ft 413 kts 56°
2026-04-24 13:47 42.92729 16.19770 37099 ft 412 kts 56°
2026-04-24 13:47 42.95927 16.26257 37098 ft 412 kts 56°
2026-04-24 13:48 42.99117 16.32744 37090 ft 411 kts 56°
2026-04-24 13:48 43.02299 16.39227 37080 ft 411 kts 56°
2026-04-24 13:49 43.05476 16.45714 37065 ft 410 kts 56°
2026-04-24 13:49 43.08644 16.52199 37055 ft 410 kts 56°
2026-04-24 13:50 43.11808 16.58689 37043 ft 410 kts 56°
2026-04-24 13:50 43.14970 16.65190 37037 ft 410 kts 56°
2026-04-24 13:51 43.17831 16.71085 37037 ft 411 kts 56°
2026-04-24 13:51 43.20972 16.77570 37034 ft 412 kts 56°
2026-04-24 13:52 43.24136 16.84118 37036 ft 412 kts 56°
2026-04-24 13:52 43.27303 16.90684 37045 ft 413 kts 56°
2026-04-24 13:53 43.30469 16.97265 37050 ft 413 kts 56°
2026-04-24 13:53 43.33635 17.03859 37057 ft 412 kts 56°
2026-04-24 13:54 43.36798 17.10462 37050 ft 414 kts 56°
2026-04-24 13:54 43.39962 17.17081 37060 ft 415 kts 56°
2026-04-24 13:55 43.43129 17.23723 37064 ft 415 kts 56°
2026-04-24 13:55 43.46295 17.30378 37070 ft 415 kts 56°
2026-04-24 13:56 43.49433 17.36990 37065 ft 416 kts 56°
2026-04-24 13:56 43.52589 17.43656 37074 ft 415 kts 56°
2026-04-24 13:57 43.55738 17.50321 37072 ft 415 kts 56°
2026-04-24 13:57 43.58879 17.56986 37073 ft 414 kts 56°
2026-04-24 13:58 43.62012 17.63647 37083 ft 413 kts 56°
2026-04-24 13:58 43.65135 17.70303 37075 ft 412 kts 56°
2026-04-24 13:59 43.68247 17.76952 37076 ft 411 kts 56°
2026-04-24 13:59 43.71345 17.83585 37063 ft 410 kts 56°
2026-04-24 14:00 43.74431 17.90205 37060 ft 409 kts 57°
2026-04-24 14:00 43.77487 17.96777 37059 ft 409 kts 56°
2026-04-24 14:01 43.80578 18.03437 37051 ft 408 kts 56°
2026-04-24 14:01 43.83619 18.10006 37046 ft 408 kts 56°
2026-04-24 14:02 43.86674 18.16619 37035 ft 407 kts 56°
2026-04-24 14:02 43.89718 18.23225 37031 ft 407 kts 56°
2026-04-24 14:03 43.92760 18.29840 37030 ft 407 kts 56°
2026-04-24 14:03 43.95799 18.36464 37029 ft 407 kts 56°
2026-04-24 14:04 43.98836 18.43100 37033 ft 408 kts 56°
2026-04-24 14:04 44.01877 18.49758 37040 ft 408 kts 57°
2026-04-24 14:05 44.04917 18.56431 37050 ft 409 kts 57°
2026-04-24 14:05 44.07965 18.63135 37060 ft 411 kts 57°
2026-04-24 14:06 44.11014 18.69858 37065 ft 411 kts 57°
2026-04-24 14:06 44.14065 18.76600 37066 ft 412 kts 57°
2026-04-24 14:07 44.17122 18.83370 37069 ft 413 kts 57°
2026-04-24 14:07 44.20178 18.90156 37071 ft 414 kts 57°
2026-04-24 14:08 44.23213 18.96910 37074 ft 414 kts 57°
2026-04-24 14:08 44.26266 19.03722 37074 ft 414 kts 57°
2026-04-24 14:09 44.29315 19.10540 37065 ft 414 kts 57°
2026-04-24 14:09 44.32355 19.17356 37065 ft 414 kts 57°
2026-04-24 14:10 44.35391 19.24177 37061 ft 413 kts 57°
2026-04-24 14:10 44.38418 19.30993 37056 ft 413 kts 57°
2026-04-24 14:11 44.41440 19.37817 37056 ft 413 kts 57°
2026-04-24 14:12 44.45964 19.48061 37049 ft 412 kts 57°
2026-04-24 14:12 44.48976 19.54901 37048 ft 412 kts 57°
2026-04-24 14:13 44.51960 19.61695 37045 ft 412 kts 57°
2026-04-24 14:13 44.54962 19.68545 37044 ft 412 kts 57°
2026-04-24 14:14 44.57961 19.75406 37043 ft 413 kts 57°
2026-04-24 14:14 44.62454 19.85713 37044 ft 413 kts 57°
2026-04-24 14:15 44.65446 19.92597 37036 ft 413 kts 57°
2026-04-24 14:15 44.68434 19.99490 37033 ft 413 kts 57°
2026-04-24 14:16 44.71418 20.06391 37026 ft 413 kts 57°
2026-04-24 14:17 44.75888 20.16759 37021 ft 413 kts 57°
2026-04-24 14:17 44.80351 20.27148 37020 ft 414 kts 57°
2026-04-24 14:18 44.83303 20.34040 37023 ft 414 kts 57°
2026-04-24 14:18 44.86270 20.40984 37023 ft 414 kts 57°
2026-04-24 14:19 44.89233 20.47938 37028 ft 414 kts 57°
2026-04-24 14:19 44.92194 20.54902 37026 ft 414 kts 57°
2026-04-24 14:20 44.95149 20.61871 37028 ft 414 kts 57°
2026-04-24 14:20 44.98102 20.68851 37024 ft 414 kts 57°
2026-04-24 14:21 45.01049 20.75833 37022 ft 414 kts 57°
2026-04-24 14:21 45.03991 20.82822 37021 ft 413 kts 57°
2026-04-24 14:22 45.06925 20.89811 37022 ft 413 kts 57°
2026-04-24 14:23 45.11300 21.00262 37024 ft 413 kts 57°
2026-04-24 14:23 45.14223 21.07264 37009 ft 413 kts 57°
2026-04-24 14:24 45.17143 21.14268 37019 ft 413 kts 57°
2026-04-24 14:24 45.20059 21.21277 37017 ft 413 kts 57°
2026-04-24 14:25 45.22478 21.27105 37020 ft 413 kts 57°
2026-04-24 14:25 45.25941 21.35245 37014 ft 412 kts 54°
2026-04-24 14:26 45.29083 21.42042 37014 ft 412 kts 54°
2026-04-24 14:26 45.32211 21.48854 37007 ft 412 kts 54°
2026-04-24 14:27 45.35319 21.55691 37008 ft 412 kts 54°
2026-04-24 14:27 45.38421 21.62548 37010 ft 412 kts 54°
2026-04-24 14:28 45.41519 21.69412 37000 ft 412 kts 54°
2026-04-24 14:28 45.44616 21.76289 37004 ft 413 kts 54°
2026-04-24 14:29 45.47691 21.83132 37009 ft 413 kts 54°
2026-04-24 14:29 45.50783 21.90031 37006 ft 413 kts 54°
2026-04-24 14:30 45.53370 21.95815 37010 ft 413 kts 54°
2026-04-24 14:30 45.56956 22.03854 37009 ft 413 kts 54°
2026-04-24 14:31 45.60036 22.10778 37007 ft 413 kts 54°
2026-04-24 14:31 45.63065 22.17609 36607 ft 402 kts 54°
2026-04-24 14:31 45.64551 22.20967 36145 ft 397 kts 54°
2026-04-24 14:32 45.66019 22.24286 35684 ft 392 kts 54°
2026-04-24 14:32 45.66978 22.26455 35386 ft 389 kts 54°
2026-04-24 14:32 45.68424 22.29728 34944 ft 390 kts 54°
2026-04-24 14:32 45.69880 22.33024 34507 ft 394 kts 53°
2026-04-24 14:33 45.71345 22.36345 34080 ft 395 kts 53°
2026-04-24 14:33 45.72809 22.39671 33606 ft 395 kts 54°
2026-04-24 14:33 45.74273 22.43003 33097 ft 396 kts 53°
2026-04-24 14:33 45.75745 22.46356 32631 ft 399 kts 53°
2026-04-24 14:34 45.77225 22.49729 32164 ft 401 kts 54°
2026-04-24 14:34 45.78712 22.53122 31708 ft 403 kts 54°
2026-04-24 14:34 45.80202 22.56529 31248 ft 405 kts 54°
2026-04-24 14:34 45.81698 22.59962 30806 ft 407 kts 55°
2026-04-24 14:35 45.83010 22.63579 30367 ft 411 kts 62°
2026-04-24 14:35 45.83997 22.67425 29886 ft 412 kts 69°
2026-04-24 14:35 45.84645 22.71426 29398 ft 413 kts 75°
2026-04-24 14:35 45.85150 22.75466 28899 ft 410 kts 74°
2026-04-24 14:36 45.85661 22.79474 28406 ft 407 kts 74°
2026-04-24 14:36 45.86174 22.83453 27925 ft 404 kts 74°
2026-04-24 14:36 45.86721 22.87385 27444 ft 398 kts 69°
2026-04-24 14:36 45.87783 22.90984 26987 ft 388 kts 53°
2026-04-24 14:37 45.89425 22.94015 26543 ft 399 kts 43°
2026-04-24 14:37 45.91347 22.96990 26093 ft 410 kts 44°
2026-04-24 14:37 45.93274 22.99999 25643 ft 407 kts 44°
2026-04-24 14:37 45.95175 23.02979 25211 ft 402 kts 44°
2026-04-24 14:38 45.97057 23.05934 24770 ft 400 kts 44°
2026-04-24 14:38 45.98934 23.08884 24357 ft 399 kts 44°
2026-04-24 14:38 46.00802 23.11821 23932 ft 396 kts 44°
2026-04-24 14:38 46.02656 23.14738 23518 ft 394 kts 43°
2026-04-24 14:39 46.04498 23.17642 23033 ft 392 kts 43°
2026-04-24 14:39 46.06331 23.20535 22545 ft 390 kts 43°
2026-04-24 14:39 46.08151 23.23410 22076 ft 387 kts 44°
2026-04-24 14:39 46.09960 23.26270 21600 ft 384 kts 43°
2026-04-24 14:40 46.11751 23.29105 21146 ft 382 kts 43°
2026-04-24 14:40 46.13532 23.31927 20701 ft 380 kts 43°
2026-04-24 14:40 46.15309 23.34743 20251 ft 379 kts 43°
2026-04-24 14:40 46.17075 23.37546 19814 ft 377 kts 43°
2026-04-24 14:41 46.18826 23.40332 19373 ft 373 kts 43°
2026-04-24 14:41 46.20560 23.43093 18957 ft 372 kts 43°
2026-04-24 14:41 46.22301 23.45862 18532 ft 373 kts 43°
2026-04-24 14:41 46.24018 23.48595 18102 ft 371 kts 43°
2026-04-24 14:42 46.25740 23.51344 17617 ft 367 kts 43°
2026-04-24 14:42 46.27443 23.54063 17157 ft 365 kts 43°
2026-04-24 14:42 46.29143 23.56778 16692 ft 364 kts 43°
2026-04-24 14:42 46.30840 23.59490 16239 ft 363 kts 44°
2026-04-24 14:43 46.32529 23.62193 15792 ft 361 kts 44°
2026-04-24 14:43 46.34208 23.64886 15338 ft 359 kts 44°
2026-04-24 14:43 46.35878 23.67567 14910 ft 358 kts 44°
2026-04-24 14:43 46.37542 23.70236 14479 ft 357 kts 44°
2026-04-24 14:44 46.39202 23.72904 14055 ft 355 kts 44°
2026-04-24 14:44 46.40852 23.75558 13611 ft 354 kts 44°
2026-04-24 14:44 46.42499 23.78207 13143 ft 353 kts 44°
2026-04-24 14:44 46.44143 23.80855 12663 ft 352 kts 44°
2026-04-24 14:45 46.45776 23.83490 12198 ft 350 kts 44°
2026-04-24 14:45 46.47399 23.86111 11745 ft 349 kts 44°
2026-04-24 14:45 46.49024 23.88736 11297 ft 348 kts 45°
2026-04-24 14:45 46.50621 23.91322 10860 ft 347 kts 45°
2026-04-24 14:46 46.52229 23.93929 10420 ft 345 kts 45°
2026-04-24 14:46 46.53823 23.96518 10001 ft 344 kts 45°
2026-04-24 14:46 46.55420 23.99111 9522 ft 343 kts 45°
2026-04-24 14:46 46.56759 24.01292 9143 ft 337 kts 45°
2026-04-24 14:47 46.58276 24.03763 8832 ft 327 kts 45°
2026-04-24 14:47 46.59765 24.06193 8516 ft 317 kts 44°
2026-04-24 14:47 46.61222 24.08525 8189 ft 304 kts 39°
2026-04-24 14:47 46.62938 24.10054 7877 ft 279 kts 13°
2026-04-24 14:48 46.64783 24.10326 7575 ft 259 kts 349°
2026-04-24 14:48 46.66411 24.09492 7259 ft 242 kts 326°
2026-04-24 14:48 46.67796 24.08174 6928 ft 234 kts 326°
2026-04-24 14:48 46.69144 24.06899 6560 ft 230 kts 326°
2026-04-24 14:49 46.70501 24.05624 6238 ft 234 kts 326°
2026-04-24 14:49 46.71867 24.04344 5870 ft 233 kts 327°
2026-04-24 14:49 46.73230 24.03068 5516 ft 232 kts 326°
2026-04-24 14:49 46.74588 24.01791 5152 ft 232 kts 326°
2026-04-24 14:50 46.75943 24.00518 4849 ft 231 kts 327°
2026-04-24 14:50 46.77282 23.99255 4588 ft 228 kts 326°
2026-04-24 14:50 46.78606 23.98004 4320 ft 225 kts 326°
2026-04-24 14:50 46.79909 23.96773 4066 ft 222 kts 326°
2026-04-24 14:51 46.81180 23.95577 3977 ft 211 kts 327°
2026-04-24 14:51 46.82374 23.94450 3983 ft 198 kts 326°
2026-04-24 14:51 46.83309 23.93113 4001 ft 182 kts 300°
2026-04-24 14:51 46.83625 23.91428 3983 ft 172 kts 276°
2026-04-24 14:52 46.83488 23.89706 3923 ft 175 kts 263°
2026-04-24 14:52 46.83157 23.88006 3689 ft 172 kts 256°
2026-04-24 14:52 46.82773 23.86365 3462 ft 169 kts 258°
2026-04-24 14:52 46.82410 23.84746 3227 ft 165 kts 258°
2026-04-24 14:53 46.82065 23.83204 3009 ft 156 kts 258°
2026-04-24 14:53 46.81740 23.81762 2821 ft 144 kts 259°
2026-04-24 14:53 46.81440 23.80426 2620 ft 134 kts 259°
2026-04-24 14:53 46.81151 23.79131 2447 ft 136 kts 259°
2026-04-24 14:54 46.80855 23.77817 2249 ft 133 kts 259°
2026-04-24 14:54 46.80580 23.76542 2037 ft 134 kts 259°
2026-04-24 14:54 46.80298 23.75178 1880 ft 144 kts 255°
2026-04-24 14:54 46.79969 23.73846 1683 ft 135 kts 257°
2026-04-24 14:55 46.79782 23.72985 1535 ft 135 kts 257°
2026-04-24 14:55 46.79375 23.71212 1328 ft 136 kts 255°
2026-04-24 14:55 46.79092 23.69941 1103 ft 130 kts 256°
2026-04-24 14:55 46.78818 23.68719 1045 ft 118 kts 255°
2026-04-24 14:56 46.78640 23.67935 1043 ft 53 kts 250°
2026-04-24 14:56 46.78536 23.67477 1043 ft 36 kts 251°
2026-04-24 14:56 46.78477 23.67217 1043 ft 13 kts 250°
2026-04-24 14:56 46.78404 23.67193 1043 ft 12 kts 150°
2026-04-24 14:57 46.78344 23.67302 1043 ft 16 kts 106°
2026-04-24 14:57 46.78358 23.67470 1043 ft 18 kts 78°
2026-04-24 14:57 46.78396 23.67662 1043 ft 21 kts 70°
2026-04-24 14:57 46.78445 23.67877 1043 ft 24 kts 71°
2026-04-24 14:58 46.78498 23.68116 1043 ft 26 kts 71°
2026-04-24 14:58 46.78557 23.68375 1043 ft 28 kts 72°
2026-04-24 14:58 46.78619 23.68651 1043 ft 26 kts 72°
2026-04-24 14:58 46.78676 23.68908 1043 ft 27 kts 72°
2026-04-24 14:59 46.78730 23.69146 1043 ft 17 kts 71°
2026-04-24 14:59 46.78723 23.69248 1043 ft 8 kts 140°
2026-04-24 14:59 46.78702 23.69297 1043 ft 6 kts 89°
2026-04-24 14:59 46.78714 23.69349 1043 ft 0 kts 71°